Regional Weather Roundup
Issued by NWS Glasgow, MT

Home | Current Version | Previous Version | Text Only | Print | Product List | Glossary On
Versions: 1 2 3 4 5 6 7 8 9 10 11 12 13 14 15 16 17 18 19 20 21 22 23 24 25 26 27
000
ASUS45 KGGW 162215
RWRGGW
HOURLY REGIONAL WEATHER ROUNDUP FOR NORTHEAST MONTANA
NATIONAL WEATHER SERVICE GLASGOW MONTANA
300 PM MST MON JAN 16 2017

NOTE: "FAIR" INDICATES FEW OR NO CLOUDS BELOW 12,000 FEET WITH NO
SIGNIFICANT WEATHER AND/OR OBSTRUCTIONS TO VISISBILITY.

NORTHEAST MONTANA


CITY           SKY/WX    TMP DP  RH WIND       PRES   REMARKS
GLASGOW        CLOUDY    17   9  70 CALM      30.08F HAZE
PLENTYWOOD       N/A     20  11  68 E1          N/A
WOLF POINT     CLOUDY    18  10  71 W6        30.11F
JORDAN           N/A     32  18  56 NW3       30.06F
WINNETT          N/A     27  15  61 NE3         N/A
SIDNEY         SUNNY     18  12  77 SW7       30.12R
GLENDIVE       SUNNY     18  10  71 S6        30.11R
MALTA            N/A     29  15  56 E1          N/A

FORT PECK REPORTS


CITY           SKY/WX    TMP DP  RH WIND       PRES   REMARKS
FORT PECK        N/A     29  18  63 SW3         N/A
THE PINES        N/A     33  16  49 CALM        N/A

SOUTHEAST MONTANA


CITY           SKY/WX    TMP DP  RH WIND       PRES   REMARKS
BILLINGS       CLOUDY    27  12  53 SW16      30.07S
MILES CITY     SUNNY     16   5  62 SE7       30.11S
BAKER          CLOUDY    20  11  68 W7        30.09S
LIVINGSTON     CLOUDY    30  12  47 W20       30.08F

CENTRAL MONTANA


CITY           SKY/WX    TMP DP  RH WIND       PRES   REMARKS
HAVRE          CLOUDY    23  13  65 SW3       30.01F
LEWISTOWN      CLOUDY    32  14  47 CALM      30.00F
GREAT FALLS    CLOUDY    34  20  56 S18       29.99F
CUT BANK       CLOUDY    39  22  50 W23       29.91F
HELENA         CLOUDY    11   0  61 NW5       30.18F
BUTTE          CLOUDY    15   5  64 CALM      30.15F
BOZEMAN        CLOUDY    14   5  67 NE5       30.18S

WESTERN MONTANA


CITY           SKY/WX    TMP DP  RH WIND       PRES   REMARKS
MISSOULA       MOSUNNY   11   2  67 CALM      30.30F
KALISPELL      NOT AVBL

NORTH DAKOTA


CITY           SKY/WX    TMP DP  RH WIND       PRES   REMARKS
WILLISTON      SUNNY     19  13  77 SW5       30.11R
DICKINSON      SUNNY     21  14  74 W12       30.04R
MINOT          CLEAR     28  21  75 W7        30.03S
BISMARCK       SUNNY     27  17  66 NW8       30.07R

SOUTHERN SASKATCHEWAN


CITY           SKY/WX    TMP DP  RH WIND       PRES   REMARKS
REGINA         PTCLDY    23  18  80 SE9       30.01F
MOOSE JAW      MOCLDY    36  23  60 SW13      29.99F
ESTEVAN        PTCLDY    18  14  86 SW8       30.06S
SWIFT CURRENT  SUNNY     30  21  69 SW16      29.91F





USA.gov is the U.S. government's official web portal to all federal, state and local government web resources and services.